Notices

What's New in latest Release from April 7th, 2021:

- Updated Glossary, including Speed of Maximum Gust, and Total Hourly Precipitation

- Updated national and regional climate services offices contacts and prices information

- Addition of station inventory lists for 1981-2010, 1971-2000, and 1961-1990 Normals.

If you haven't already, please take our survey and provide feedback about our website: https://eccc.sondage-survey.ca/f/LanguageSelection.aspx?s=442ca660-fcf1-47c0-95a9-59707d6fd709

Hourly Data Report for April 12, 2006

TORONTO CITY
ONTARIO

43°40'00.000" N
79°24'00.000" W
112.50 m
6158355
71508
XTO

Download Data

Hourly Data (April 2006)
Hourly Data Report for April 12, 2006
TIME
LST
Temp Definition
°C
Dew Point Definition
°C
Rel Hum Definition
%
Precip. Amount Definition
mm

Wind Dir Definition
10's deg

Wind Spd Definition
km/h
Visibility Definition
km
Stn Press Definition
kPa
Hmdx Definition


Wind Chill Definition


Weather Definition


00:00 11.5 0.6 47   LegendMM LegendMM   100.66     LegendNANA
01:00 11.5 0.5 47   LegendMM LegendMM   100.58     LegendNANA
02:00 10.9 0.2 48   LegendMM LegendMM   100.50     LegendNANA
03:00 10.0 0.2 50   LegendMM LegendMM   100.46     LegendNANA
04:00 9.9 0.7 53   LegendMM LegendMM   100.38     LegendNANA
05:00 10.1 1.3 54   LegendMM LegendMM   100.37     LegendNANA
06:00 9.7 2.1 59   LegendMM LegendMM   100.41     LegendNANA
07:00 10.3 3.1 61   LegendMM LegendMM   100.42     LegendNANA
08:00 11.8 3.1 55   LegendMM LegendMM   100.44     LegendNANA
09:00 11.9 2.9 54   LegendMM LegendMM   100.44     LegendNANA
10:00 11.5 5.3 66   LegendMM LegendMM   100.33     LegendNANA
11:00 11.4 6.1 70   LegendMM LegendMM   100.24     LegendNANA
12:00 13.8 9.2 74   LegendMM LegendMM   100.16     LegendNANA
13:00 14.3 9.5 73   LegendMM LegendMM   100.05     LegendNANA
14:00 15.5 8.7 64   LegendMM LegendMM   99.79     LegendNANA
15:00 13.6 9.2 75   LegendMM LegendMM   99.76     LegendNANA
16:00 13.5 11.6 88   LegendMM LegendMM   99.82     LegendNANA
17:00 14.0 11.7 86   LegendMM LegendMM   99.58     LegendNANA
18:00 13.3 11.2 87   LegendMM LegendMM   99.57     LegendNANA
19:00 13.0 11.6 91   LegendMM LegendMM   99.49     LegendNANA
20:00 11.0 10.0 94   LegendMM LegendMM   99.48     LegendNANA
21:00 11.4 10.8 96   LegendMM LegendMM   99.54     LegendNANA
22:00 13.4 12.8 96   LegendMM LegendMM   99.62     LegendNANA
23:00 12.7 10.0 84   LegendMM LegendMM   99.77     LegendNANA

Notes on Data Quality.

Legend

  • E = Estimated
  • M = Missing
  • NA = Not Available*
  • [empty] = Indicates an unobserved value
Date modified: